Location: Beers
(53.1571°N, 5.7344°E)
Time: 18:56:33
(UTC+00:00)

Daily predictions for brighter satellites

Satellite Brightness Start Highest point End
(mag) Time Altitude Azimuth Time Altitude Azimuth Time Altitude Azimuth
COSMOS 2455 3.0 16:52:16 10° SSW 16:58:14 68° SE 17:04:14 10° NE
Meteor 2-1 Rocket 4.4 16:54:57 10° N 17:00:37 51° ENE 17:06:09 10° SE
CZ-4B R/B 2.9 16:57:34 10° SSE 17:01:31 54° ENE 17:05:17 10° N
Cosmos 2369 Rocket 4.3 16:59:20 10° NW 17:02:05 14° NNW 17:04:50 10° NNE
Cosmos 1655 Rocket 4.0 16:56:51 10° N 17:03:08 66° ENE 17:09:19 10° SSE
SL-4 R/B 2.1 17:00:41 10° WSW 17:04:03 54° SSE 17:07:37 10° E
ARGOS 3.7 17:01:13 10° S 17:06:32 64° WSW 17:11:55 10° NNW
Cosmos 1825 3.9 17:04:54 10° ESE 17:06:36 13° E 17:08:19 10° NE
Cosmos 1703 3.1 17:03:14 10° S 17:07:02 80° E 17:10:54 10° NNE
Cosmos 1544 Rocket 3.7 17:04:38 10° NNW 17:08:59 79° W 17:13:18 10° S
SL-16 R/B 3.2 17:05:05 10° SSE 17:09:45 27° ESE 17:14:26 10° NE
Cosmos 1726 Rocket 4.5 17:08:05 10° N 17:11:44 26° ENE 17:15:22 10° SE
ATLAS 5 CENTAUR R/B 2.7 17:09:03 10° W 17:12:36 32° NNW 17:16:44 10° NE
BlueWalker 3 2.1 17:08:48 10° WSW 17:12:40 68° SSE 17:16:24 11° E
ADEOS 3.8 17:14:08 10° SSE 17:19:21 76° WSW 17:24:36 10° NNW
Cosmos 2266 Rocket 4.1 17:13:03 10° N 17:19:24 89° W 17:25:36 10° S
Cosmos 1340 Rocket 2.9 17:16:28 10° S 17:20:15 52° E 17:24:05 10° NNE
Cosmos 1763 Rocket 3.5 17:16:38 10° NNW 17:21:48 57° ENE 17:26:51 10° SE
Cosmos 1980 Rocket 2.3 17:17:00 10° SSW 17:22:41 85° WNW 17:28:26 10° NNE
Cosmos 2369 3.8 17:17:47 10° SSW 17:23:28 84° WNW 17:29:12 10° NNE
USA 215 4.3 17:17:34 10° SE 17:23:53 49° SW 17:30:14 10° WNW
PAYLOAD B 4.5 17:18:53 10° SE 17:24:07 47° ENE 17:29:23 10° N
Okean O Rocket 2.8 17:21:46 10° ESE 17:25:12 23° ENE 17:28:39 10° N
ATLAS 2AS CENTAUR R/B 2.7 17:18:03 10° NW 17:25:16 88° NE 17:32:00 10° SE
SL-08 ROCKET BODY 4.4 17:19:39 10° N 17:25:31 60° ENE 17:31:17 10° SSE
Cosmos 1340 4.0 17:23:27 10° NNE 17:26:03 18° ENE 17:28:24 11° ESE
ATLAS CENTAUR R/B 1.6 17:21:32 10° SW 17:26:14 77° SE 17:30:39 11° NE
CZ-2C R/B 4.0 17:22:20 10° N 17:27:29 41° WNW 17:32:40 10° SW
Cosmos 2251 Rocket 3.5 17:22:34 10° SSW 17:27:55 80° ESE 17:33:20 10° NNE
Cosmos 1697 Rocket 3.6 17:23:09 10° WSW 17:28:37 48° NW 17:34:06 10° NNE
Radarsat Rocket 4.3 17:22:34 10° SSE 17:28:40 84° WSW 17:35:34 10° NNW
Lacrosse 4 Rocket 3.8 17:30:14 10° NNW 17:31:53 12° N 17:33:32 10° NNE
Cosmos 1943 Rocket 4.1 17:29:00 10° NNW 17:31:54 14° NNE 17:34:50 10° NE
DELTA 2 DEB (DPAF) 4.0 17:27:55 10° NNE 17:32:20 77° ESE 17:36:44 10° SSW
Cosmos 2263 Rocket 3.7 17:27:47 10° NW 17:32:59 41° WSW 17:38:09 10° S
Cosmos 841 Rocket 4.1 17:28:21 10° NNW 17:33:12 35° NE 17:38:00 10° ESE
Cosmos 1869 4.2 17:33:57 10° N 17:37:17 27° ENE 17:40:39 10° SE
Cosmos 540 Rocket 3.6 17:33:54 10° NNW 17:38:58 53° ENE 17:43:59 10° SE
SKYMED 2 3.6 17:38:24 10° NNE 17:42:43 57° E 17:46:59 10° S
Cosmos 1461 4.4 17:40:08 10° SSE 17:43:15 20° ESE 17:44:27 18° E
Lacrosse 5 3.0 17:40:37 10° S 17:44:53 28° SE 17:47:30 18° E
SL-08 R/B 3.6 17:41:07 10° NNE 17:46:04 78° WNW 17:51:01 10° SSW
Cosmos 2058 Rocket 3.7 17:42:35 10° N 17:46:34 32° ENE 17:50:34 10° SE
PSLV R/B 3.6 17:51:28 10° SSE 17:55:05 61° ENE 17:58:47 10° N
Cosmos 1607 4.0 17:49:57 10° SW 17:56:07 82° NW 18:01:45 13° NE
YAOGAN 1 2.5 17:52:43 10° SSE 17:56:58 60° ENE 18:01:15 10° N
Cosmos 676 Rocket 4.3 17:53:33 10° S 17:58:33 45° ESE 18:03:02 13° NE
SJ-6B 3.9 17:59:49 24° ENE 17:59:49 24° ENE 18:02:53 10° N
Cosmos 1328 3.9 17:55:49 10° SSW 17:59:48 77° W 18:03:47 10° N
Cosmos 407 Rocket 3.5 17:54:57 10° SSW 18:00:06 81° WNW 18:05:17 10° NNE
DMSP B5D2-2 4.3 17:55:22 10° NNE 18:00:41 77° WNW 18:05:56 10° SSW
Lacrosse 5 rocket 0.9 17:58:58 10° WNW 18:02:34 89° NNE 18:04:27 27° ESE
USA 281 4.3 17:56:41 10° NNE 18:02:49 43° NW 18:08:55 10° WSW
IRIDIUM 106 4.5 17:57:52 10° N 18:02:58 50° E 18:08:02 10° SSE
Meteor 1-11 4.3 17:57:52 10° S 18:03:36 63° E 18:09:19 10° NNE
Cosmos 1844 Rocket 2.6 17:58:32 10° NNW 18:04:09 90° SW 18:09:44 10° SSE
CZ-4B DEB 4.5 18:02:02 10° S 18:07:28 72° WSW 18:12:58 10° NNW
Meteor 2-12 Rocket 4.3 18:01:26 10° N 18:07:33 75° ENE 18:13:37 10° SSE
APEX 4.2 18:01:43 10° SSW 18:07:46 77° ESE 18:12:32 14° NE
Cosmos 1536 Rocket 4.1 18:03:47 10° SSW 18:08:02 58° WNW 18:12:22 10° N
CZ-4 R/B 1.5 18:04:24 10° SE 18:08:22 49° ENE 18:12:18 10° N
Nadezhda 2 Rocket 4.4 18:02:18 10° N 18:08:34 80° E 18:14:42 10° SSE
NOAA 15 4.5 18:03:39 10° SSE 18:08:53 76° ENE 18:14:11 10° NNW
CZ-4B R/B 3.1 18:05:49 10° SSE 18:11:09 73° ENE 18:16:37 10° NNW
Cosmos 1140 Rocket 4.0 18:06:31 10° SW 18:11:38 59° WNW 18:16:45 10° NNE
Cosmos 44 4.2 18:08:56 10° WSW 18:13:03 38° NNW 18:16:20 16° NNE
CZ-4C R/B 3.2 18:12:34 10° NNE 18:16:31 81° WNW 18:20:14 10° SSW
IGS 5A 3.8 18:15:35 31° ESE 18:16:52 41° ENE 18:20:45 10° N
Cosmos 1844 3.8 18:11:05 10° NNW 18:16:56 85° WSW 18:22:43 10° SSE
Cosmos 1606 Rocket 3.9 18:12:56 10° NNW 18:17:14 67° W 18:21:30 10° S
MOS 1-B 4.3 18:12:38 10° SSE 18:18:26 86° ENE 18:24:18 10° NNW
RESURS DK-1 2.3 18:14:32 10° NW 18:18:42 88° SW 18:21:55 16° SSE
Cosmos 1190 Rocket 4.0 18:13:42 10° SSW 18:19:01 87° WNW 18:24:22 10° NNE
Cosmos 1408 3.6 18:16:52 10° SSW 18:20:08 43° WNW 18:23:28 10° N
ISS -0.8 18:19:04 10° WSW 18:20:47 13° SW 18:22:30 10° S
Cosmos 1633 2.3 18:19:57 10° S 18:23:14 58° E 18:23:16 58° E
Cosmos 2278 4.1 18:18:18 10° SW 18:23:56 63° NW 18:29:33 10° NNE
Cosmos 724 4.5 18:19:57 10° SW 18:25:55 76° NW 18:30:26 19° NE
Cosmos 1892 3.1 18:24:08 10° SSW 18:27:49 60° WNW 18:31:34 10° N
Cosmos 2360 Rocket 2.4 18:22:37 10° S 18:28:01 48° ESE 18:30:24 30° ENE
Cosmos 2219 Rocket 3.5 18:24:31 10° SSE 18:27:04 21° SE 18:27:04 21° SE
COSMO-SKYMED 1 3.3 18:26:28 10° N 18:30:44 54° WNW 18:34:58 10° SW
Cosmos 1892 Rocket 3.4 18:27:36 10° S 18:32:00 71° E 18:36:24 10° NNE
Cosmos 2333 Rocket 2.7 18:27:43 10° S 18:32:50 36° ESE 18:33:11 36° E
Cosmos 2278 Rocket 3.0 18:27:46 10° NNW 18:32:51 32° NE 18:33:33 31° NE
Resurs 01 Rocket 3.6 18:37:06 15° NNE 18:37:06 15° NNE 18:38:17 10° N
USA 186 4.4 18:41:30 12° N 18:41:30 12° N 18:41:49 10° N
Cosmos 2322 Rocket 2.0 18:33:51 10° SSW 18:39:26 78° ESE 18:42:51 25° NE
Feng Yun 1-1 Rocket 4.1 18:35:39 10° SSE 18:41:13 84° ENE 18:46:41 10° NNW
Cosmos 1825 2.4 18:37:34 10° SSW 18:41:15 67° WNW 18:44:06 16° N
DMSP B5D1-3 4.4 18:36:26 10° NNE 18:41:33 69° ESE 18:46:38 10° S
SL-4 R/B 1.7 18:39:39 10° W 18:43:11 68° S 18:43:14 68° S
COSMOS 2455 4.0 18:38:59 10° WSW 18:44:36 39° NNW 18:48:58 16° NNE
Cosmos 2369 Rocket 4.1 18:45:38 10° NNW 18:48:40 14° NNE 18:49:22 14° NNE
BlueWalker 3 1.9 18:47:23 10° W 18:51:11 85° WNW 18:51:11 85° WNW
SL-16 R/B 2.5 18:47:46 10° SW 18:53:25 68° NW 18:57:26 20° NNE
SPOT 1/Viking Rocket 4.4 18:54:56 33° NNE 18:54:56 33° NNE 18:58:23 10° N
Cosmos 2333 4.3 18:49:32 10° S 18:54:40 49° ESE 18:54:40 49° ESE
Cosmos 1745 Rocket 3.9 18:49:12 10° N 18:55:31 88° E 19:01:44 10° S
Cosmos 1954 Rocket 4.3 18:51:55 10° SW 18:57:08 65° WNW 19:00:57 19° NNE
ATLAS 5 CENTAUR R/B 3.3 18:54:44 10° NW 18:58:15 23° N 18:58:44 23° NNE
Cosmos 1606 4.2 18:54:38 10° N 18:56:30 27° N 18:56:30 27° N
CSL-04 Debris 4.0 18:56:13 32° SSE 18:58:49 77° ENE 19:04:14 10° NNW
Cosmos 1386 Rocket 4.4 18:55:00 10° NNW 19:01:01 81° W 19:07:03 10° S
Okean O Rocket 2.1 18:56:52 10° S 19:01:12 58° WSW 19:05:35 10° NNW
Okean-O 3.5 19:03:02 36° N 19:03:02 36° N 19:05:50 10° N
Cosmos 1340 3.4 18:58:01 10° NNW 19:01:35 49° W 19:02:56 32° SSW
Cosmos 1814 Rocket 3.9 18:56:23 10° NNW 19:01:46 73° ENE 19:02:30 63° ESE
ATLAS CENTAUR R/B 3.0 19:01:03 10° W 19:05:11 31° NNW 19:06:28 27° N
CSL-04 Rocket 3.5 19:04:35 49° SSE 19:06:03 79° ENE 19:11:29 10° NNW
Cosmos 1980 Rocket 4.1 19:02:51 10° W 19:07:31 25° NW 19:11:54 11° NNE
Cosmos 1850 Rocket 4.1 19:02:46 10° SSW 19:07:01 55° SSE 19:07:01 55° SSE
Lacrosse 4 Rocket 3.7 19:09:06 10° NNW 19:10:48 16° N 19:10:48 16° N
Cosmos 1709 Rocket 3.8 19:07:59 10° N 19:14:11 80° E 19:16:27 41° SSE
Cosmos 1741 Rocket 4.2 19:09:51 10° SSW 19:14:11 57° SSE 19:14:11 57° SSE
Cosmos 841 Rocket 4.3 19:10:11 10° NW 19:15:17 50° WSW 19:19:11 17° S
ATLAS 2AS CENTAUR R/B 4.5 19:09:41 10° WNW 19:15:25 28° WSW 19:20:54 10° S
Cosmos 1943 Rocket 3.5 19:12:44 10° NNW 19:16:34 27° NNE 19:16:34 27° NNE
Cosmos 1461 3.6 19:17:14 10° SW 19:20:38 54° WSW 19:20:38 54° WSW
Cosmos 1553 Rocket 4.4 19:17:25 10° SSW 19:23:25 59° WNW 19:29:32 10° N
Lacrosse 5 2.0 19:22:17 10° WSW 19:26:44 67° SW 19:26:44 67° SW
Landsat 7 4.1 19:29:56 64° WNW 19:29:56 64° WNW 19:34:14 10° NNW
Cosmos 1570 Rocket 4.3 19:25:15 10° NNW 19:29:40 59° N 19:29:40 59° N
SJ-6B 4.5 19:35:16 32° NW 19:35:16 32° NW 19:37:48 10° NNW
Gblst 52 Del rocket 4.3 19:31:37 10° WSW 19:36:23 64° SW 19:36:23 64° SW
Lacrosse 5 rocket 3.6 19:38:13 10° W 19:39:53 19° WSW 19:39:53 19° WSW
CZ-4 R/B 3.9 19:40:19 10° SW 19:43:30 21° W 19:46:40 10° NW
Resurs 01 Rocket 4.3 20:14:37 15° NNW 20:14:37 15° NNW 20:15:22 10° NNW
Cosmos 2360 Rocket 3.2 20:06:47 10° WSW 20:12:08 42° NW 20:12:13 42° NW
Cosmos 2219 Rocket 3.9 20:06:51 10° SW 20:08:53 23° SW 20:08:53 23° SW
Cosmos 2333 Rocket 3.3 20:11:26 10° SW 20:15:16 39° W 20:15:16 39° W
Cosmos 2278 Rocket 3.3 20:11:45 10° NW 20:15:24 40° NW 20:15:24 40° NW
Cosmos 2322 Rocket 3.8 20:19:13 10° W 20:24:05 29° NW 20:24:42 29° NNW
Cosmos 2369 Rocket 4.3 20:29:30 10° NNW 20:31:09 18° N 20:31:09 18° N
SL-16 R/B 4.2 20:34:15 10° W 20:38:36 22° NNW 20:39:19 21° NNW
ATLAS 5 CENTAUR R/B 4.5 20:39:24 10° NW 20:40:07 14° NW 20:40:07 14° NW
Cosmos 1943 Rocket 4.4 20:56:20 10° NNW 20:58:05 21° NW 20:58:05 21° NW
